EW6538 Weather Reports


time (UTC)temp
C
wind
direction
speed
KPH
gust
KPH
rain 1hr
cm
rain 24hr
cm
rain mn
cm
humidity
%
barometer
mb
20260503050654 16 171 6.4 9.7 0.00 0.00 0.00 46 1010.2
20260503050200 16 163 6.4 8.0 0.00 0.00 0.00 46 1010.1
20260503045642 16 158 6.4 8.0 0.00 0.00 0.00 46 1010.1
20260503045140 17 160 4.8 8.0 0.00 0.00 0.00 44 1010.1
20260503044638 17 167 3.2 8.0 0.00 0.00 0.00 44 1010.0
20260503044158 17 161 3.2 6.4 0.00 0.00 0.00 43 1010.1
20260503043648 17 161 3.2 6.4 0.00 0.00 0.00 43 1010.0
20260503043147 17 161 4.8 6.4 0.00 0.00 0.00 42 1009.9
20260503042638 17 165 4.8 6.4 0.00 0.00 0.00 43 1009.9
20260503042134 17 159 3.2 8.0 0.00 0.00 0.00 44 1009.9
20260503041626 17 161 3.2 8.0 0.00 0.00 0.00 44 1009.9
20260503041227 17 159 3.2 6.4 0.00 0.00 0.00 45 1009.9
20260503040126 17 158 3.2 8.0 0.00 0.00 0.00 45 1009.8
20260503035619 17 159 3.2 8.0 0.00 0.00 0.00 46 1009.8
20260503035123 17 158 4.8 8.0 0.00 0.00 0.00 47 1009.7
20260503034631 16 163 4.8 8.0 0.00 0.00 0.00 48 1009.7
20260503034116 17 163 4.8 8.0 0.00 0.00 0.00 47 1009.6
20260503033629 17 165 4.8 8.0 0.00 0.00 0.00 46 1009.4
20260503033110 17 165 4.8 8.0 0.00 0.00 0.00 47 1009.3
20260503032615 17 159 4.8 8.0 0.00 0.00 0.00 46 1009.3
20260503032121 17 165 6.4 8.0 0.00 0.00 0.00 46 1009.2
20260503031636 17 165 8.0 11.3 0.00 0.00 0.00 46 1009.2
20260503031110 17 165 8.0 12.9 0.00 0.00 0.00 50 1009.1
20260503030637 17 161 8.0 12.9 0.00 0.00 0.00 50 1009.1
20260503030121 17 165 8.0 12.9 0.00 0.00 0.00 51 1009.1
20260503025736 18 169 6.4 9.7 0.00 0.00 0.00 45 1009.0
20260503024612 20 169 4.8 8.0 0.00 0.00 0.00 39 1009.0
20260503024115 20 169 4.8 6.4 0.00 0.00 0.00 38 1009.0
20260503023614 20 166 3.2 6.4 0.00 0.00 0.00 37 1009.0
20260503023106 20 165 3.2 3.2 0.00 0.00 0.00 38 1009.1
20260503022603 21 350 1.6 3.2 0.00 0.00 0.00 37 1009.0
20260503022114 21 350 0.0 3.2 0.00 0.00 0.00 36 1009.0
20260503021612 21 350 0.0 0.0 0.00 0.00 0.00 34 1009.0
20260503021116 21 350 0.0 0.0 0.00 0.00 0.00 34 1009.1
20260503020602 22 350 0.0 1.6 0.00 0.00 0.00 39 1009.0
20260503020116 22 350 0.0 1.6 0.00 0.00 0.00 33 1009.1
20260503015556 22 350 0.0 1.6 0.00 0.00 0.00 35 1009.0
20260503015059 22 350 0.0 1.6 0.00 0.00 0.00 31 1009.0
20260503014603 22 350 1.6 3.2 0.00 0.00 0.00 30 1009.0
20260503014108 22 350 1.6 4.8 0.00 0.00 0.00 32 1009.0
20260503013557 22 350 3.2 4.8 0.00 0.00 0.00 32 1009.0
20260503013103 23 350 4.8 6.4 0.00 0.00 0.00 30 1009.0
20260503012606 23 350 6.4 8.0 0.00 0.00 0.00 30 1009.0
20260503012102 23 350 6.4 8.0 0.00 0.00 0.00 31 1009.1
20260503011610 23 355 6.4 8.0 0.00 0.00 0.00 29 1009.1
20260503011057 23 350 4.8 8.0 0.00 0.00 0.00 27 1009.1
20260503010609 23 355 4.8 9.7 0.00 0.00 0.00 29 1009.1
20260503010109 23 62 6.4 11.3 0.00 0.00 0.00 26 1009.2
20260503005556 23 34 4.8 11.3 0.00 0.00 0.00 26 1009.2
20260503005059 23 28 3.2 8.0 0.00 0.00 0.00 27 1009.1
20260503004604 23 42 3.2 8.0 0.00 0.00 0.00 30 1009.2
20260503004058 23 58 3.2 6.4 0.00 0.00 0.00 29 1009.2
20260503003559 23 41 4.8 9.7 0.00 0.00 0.00 30 1009.2
20260503003054 23 36 3.2 9.7 0.00 0.00 0.00 28 1009.2
20260503002610 23 54 1.6 6.4 0.00 0.00 0.00 29 1009.2
20260503002055 23 54 3.2 8.0 0.00 0.00 0.00 28 1009.2
20260503001558 23 65 4.8 8.0 0.00 0.00 0.00 29 1009.3
20260503001052 23 52 4.8 8.0 0.00 0.00 0.00 29 1009.3
20260503000552 23 64 4.8 11.3 0.00 0.00 0.00 28 1009.3
20260503000159 23 88 8.0 16.1 0.00 0.00 0.00 30 1009.3
20260502235053 23 74 4.8 14.5 0.00 0.00 0.00 31 1009.3
20260502234549 23 53 4.8 12.9 0.00 0.00 0.00 29 1009.3
20260502234059 23 43 4.8 12.9 0.00 0.00 0.00 29 1009.6
20260502233547 23 76 6.4 12.9 0.00 0.00 0.00 29 1009.6
20260502233057 23 88 6.4 12.9 0.00 0.00 0.00 30 1009.6
20260502232558 23 84 8.0 14.5 0.00 0.00 0.00 28 1009.7
20260502232047 23 78 9.7 19.3 0.00 0.00 0.00 30 1009.7
20260502231550 23 86 12.9 19.3 0.00 0.00 0.00 27 1009.7
20260502231049 23 76 12.9 16.1 0.00 0.00 0.00 26 1009.7
20260502230546 23 65 11.3 17.7 0.00 0.00 0.00 27 1009.8
20260502225600 23 60 11.3 16.1 0.00 0.00 0.00 30 1009.9
20260502225047 23 61 11.3 16.1 0.00 0.00 0.00 29 1010.0
20260502224543 23 63 12.9 17.7 0.00 0.00 0.00 29 1010.1
20260502224052 23 62 12.9 19.3 0.00 0.00 0.00 28 1010.1
20260502223651 23 66 12.9 22.5 0.00 0.00 0.00 28 1010.1
20260502222545 23 100 12.9 19.3 0.00 0.00 0.00 33 1010.2
20260502222040 23 45 11.3 20.9 0.00 0.00 0.00 37 1010.2
20260502221603 23 57 12.9 20.9 0.00 0.00 0.00 37 1010.3
20260502221145 23 25 12.9 20.9 0.00 0.00 0.00 34 1010.3
20260502220100 22 34 11.3 20.9 0.00 0.00 0.00 37 1010.4
20260502215543 23 63 9.7 16.1 0.00 0.00 0.00 36 1010.4
20260502215045 22 35 11.3 17.7 0.00 0.00 0.00 37 1010.6
20260502214545 22 13 11.3 19.3 0.00 0.00 0.00 37 1010.5
20260502214039 22 5 11.3 19.3 0.00 0.00 0.00 38 1010.6
20260502213544 22 5 11.3 19.3 0.00 0.00 0.00 40 1010.6
20260502213038 22 344 11.3 17.7 0.00 0.00 0.00 43 1010.7
20260502212621 22 76 9.7 17.7 0.00 0.00 0.00 41 1010.7
20260502212102 22 36 9.7 22.5 0.00 0.00 0.00 42 1010.7
20260502211615 22 17 9.7 22.5 0.00 0.00 0.00 46 1010.8
20260502211055 22 28 9.7 17.7 0.00 0.00 0.00 45 1011.0
20260502210602 22 355 9.7 17.7 0.00 0.00 0.00 43 1011.0
20260502210108 22 49 8.0 17.7 0.00 0.00 0.00 46 1011.0
20260502205541 22 40 8.0 19.3 0.00 0.00 0.00 45 1011.0
20260502205045 22 56 11.3 20.9 0.00 0.00 0.00 45 1011.1
20260502204530 21 52 9.7 20.9 0.00 0.00 0.00 47 1011.1
20260502204037 21 34 9.7 19.3 0.00 0.00 0.00 44 1011.2
20260502203535 22 57 9.7 20.9 0.00 0.00 0.00 46 1011.2
20260502203028 21 72 9.7 20.9 0.00 0.00 0.00 47 1011.2
20260502202542 21 49 9.7 19.3 0.00 0.00 0.00 47 1011.3
20260502202019 21 88 9.7 19.3 0.00 0.00 0.00 46 1011.3
20260502201532 21 84 9.7 16.1 0.00 0.00 0.00 45 1011.3
20260502201127 21 15 9.7 16.1 0.00 0.00 0.00 46 1011.3
20260502200019 21 40 8.0 16.1 0.00 0.00 0.00 48 1011.4
20260502195527 21 51 8.0 16.1 0.00 0.00 0.00 47 1011.4
20260502195022 21 5 8.0 17.7 0.00 0.00 0.00 47 1011.5
20260502194613 21 65 8.0 17.7 0.00 0.00 0.00 46 1011.5
20260502193521 20 113 6.4 14.5 0.00 0.00 0.00 47 1011.6
20260502193035 20 28 6.4 14.5 0.00 0.00 0.00 46 1011.7
20260502192527 20 177 6.4 14.5 0.00 0.00 0.00 47 1011.6
20260502192012 20 50 4.8 14.5 0.00 0.00 0.00 48 1011.7
20260502191534 20 89 4.8 9.7 0.00 0.00 0.00 45 1011.7
20260502191124 20 53 4.8 9.7 0.00 0.00 0.00 47 1011.8
20260502190022 19 57 8.0 14.5 0.00 0.00 0.00 47 1011.9
20260502185507 19 62 8.0 12.9 0.00 0.00 0.00 46 1011.9
20260502185014 19 73 4.8 12.9 0.00 0.00 0.00 50 1011.9
20260502184514 18 32 4.8 14.5 0.00 0.00 0.00 48 1011.9
20260502184012 18 67 3.2 14.5 0.00 0.00 0.00 48 1012.0
20260502183510 18 49 4.8 11.3 0.00 0.00 0.00 50 1012.0
20260502183009 18 19 4.8 12.9 0.00 0.00 0.00 49 1012.0
20260502182510 17 105 6.4 14.5 0.00 0.00 0.00 49 1012.1
20260502182023 17 63 6.4 14.5 0.00 0.00 0.00 51 1012.1
20260502181510 17 61 6.4 14.5 0.00 0.00 0.00 51 1012.1
20260502181007 17 80 6.4 12.9 0.00 0.00 0.00 54 1012.1
20260502180511 17 90 6.4 12.9 0.00 0.00 0.00 54 1012.2
20260502164007 16 338 3.2 8.0 0.00 0.00 0.00 56 1012.1
20260502163503 16 285 3.2 8.0 0.00 0.00 0.00 55 1012.2
20260502163021 16 355 3.2 6.4 0.00 0.00 0.00 56 1012.2
20260502162510 16 28 3.2 8.0 0.00 0.00 0.00 57 1012.2
20260502162029 15 355 3.2 8.0 0.00 0.00 0.00 58 1012.2
20260502161554 15 317 3.2 6.4 0.00 0.00 0.00 57 1012.1
20260502161209 15 0 3.2 6.4 0.00 0.00 0.00 60 1012.2
20260502152102 15 216 0.0 4.8 0.00 0.00 0.00 51 1012.0
20260502151024 14 216 0.0 1.6 0.00 0.00 0.00 53 1012.0
20260502150604 14 216 0.0 1.6 0.00 0.00 0.00 55 1012.1
20260502130433 10 196 4.8 9.7 0.00 0.00 0.00 69 1011.9
20260502123555 10 189 8.0 12.9 0.00 0.00 0.00 69 1011.5
20260502123147 10 176 8.0 12.9 0.00 0.00 0.00 67 1011.5
20260502121441 11 205 12.9 19.3 0.00 0.00 0.00 66 1011.4
20260502120937 11 212 12.9 19.3 0.00 0.00 0.00 65 1011.3
20260502120435 11 190 14.5 17.7 0.00 0.00 0.00 65 1011.4
20260502115436 11 0 12.9 19.3 0.00 0.00 0.00 64 1011.5
20260502114935 11 191 12.9 19.3 0.00 0.00 0.00 63 1011.6
20260502114436 11 202 11.3 17.7 0.00 0.00 0.00 64 1011.6
20260502113937 11 193 11.3 14.5 0.00 0.00 0.00 64 1011.6
20260502113513 11 190 11.3 14.5 0.00 0.00 0.00 63 1011.6
20260502113001 11 202 12.9 14.5 0.00 0.00 0.00 64 1011.6
20260502112457 11 189 11.3 14.5 0.00 0.00 0.00 66 1011.6
20260502111953 11 190 11.3 14.5 0.00 0.00 0.00 65 1011.7
20260502111445 11 202 11.3 14.5 0.00 0.00 0.00 65 1011.7
20260502111000 11 191 11.3 14.5 0.00 0.00 0.00 65 1011.6
20260502110447 11 185 11.3 14.5 0.00 0.00 0.00 65 1011.6
20260502110012 11 206 12.9 16.1 0.00 0.00 0.00 65 1011.7
20260502105549 11 186 11.3 16.1 0.00 0.00 0.00 65 1011.7
20260502104448 11 194 9.7 12.9 0.00 0.00 0.00 67 1011.6
20260502104050 11 184 11.3 12.9 0.00 0.00 0.00 66 1011.7
20260502102937 11 194 11.3 14.5 0.00 0.00 0.00 66 1011.7
20260502102443 10 188 8.0 11.3 0.00 0.00 0.00 68 1011.6
20260502101940 10 180 6.4 9.7 0.00 0.00 0.00 69 1011.7
20260502101433 10 181 4.8 9.7 0.00 0.00 0.00 67 1011.7
20260502100930 11 184 8.0 11.3 0.00 0.00 0.00 65 1011.7
20260502100531 11 209 9.7 12.9 0.00 0.00 0.00 64 1011.7
20260502090917 11 169 3.2 8.0 0.00 0.00 0.00 64 1011.6
20260502090428 11 165 4.8 8.0 0.00 0.00 0.00 63 1011.6
20260502071419 15 206 9.7 12.9 0.00 0.00 0.00 49 1011.7
20260502070932 14 202 11.3 12.9 0.00 0.00 0.00 50 1011.7
20260502070410 15 184 9.7 12.9 0.00 0.00 0.00 51 1011.7
20260502070026 13 194 8.0 12.9 0.00 0.00 0.00 55 1011.7
20260502064913 13 168 9.7 12.9 0.00 0.00 0.00 55 1011.7
20260502064409 14 163 8.0 11.3 0.00 0.00 0.00 51 1011.7
20260502063911 14 163 8.0 11.3 0.00 0.00 0.00 52 1011.6
20260502063410 15 177 8.0 12.9 0.00 0.00 0.00 50 1011.6
20260502062912 14 163 9.7 14.5 0.00 0.00 0.00 51 1011.6
20260502062410 15 172 8.0 16.1 0.00 0.00 0.00 51 1011.6
20260502061912 15 155 8.0 16.1 0.00 0.00 0.00 48 1011.6
20260502061428 15 169 8.0 14.5 0.00 0.00 0.00 47 1011.6
20260502061004 15 169 8.0 14.5 0.00 0.00 0.00 48 1011.6
20260502055902 15 171 6.4 12.9 0.00 0.00 0.00 48 1011.6
20260502055401 15 159 8.0 14.5 0.00 0.00 0.00 48 1011.7
20260502054854 15 164 8.0 14.5 0.00 0.00 0.00 47 1011.7
20260502054355 15 172 8.0 12.9 0.00 0.00 0.00 48 1011.6
20260502053845 15 157 8.0 14.5 0.00 0.00 0.00 47 1011.7
20260502053349 16 143 8.0 14.5 0.00 0.00 0.00 46 1011.7
20260502052909 16 165 8.0 12.9 0.00 0.00 0.00 46 1011.6
20260502052446 16 163 8.0 12.9 0.00 0.00 0.00 45 1011.7
20260502051352 16 153 8.0 11.3 0.00 0.00 0.00 45 1011.7